Location: Dana
(41.8364°N, 106.7042°W)
Time: 14:01:17
(UTC+00:00)

Injun/Solrad 3 - Pass Details

Date: 19 May 2026
Orbit: 867 x 989 km, 66.8° (Epoch: 7 June)

Event Time Altitude Azimuth Distance (km) Brightness Sun altitude
Rises 04:27:06 0° 337° (NNW) 3,672 12.5 -18.6°
Reaches altitude 10° 04:31:00 10° 360° (N) 2,739 11.1 -19.0°
Maximum altitude 04:34:32 15° 34° (NE) 2,395 10.3 -19.4°
Drops below altitude 10° 04:38:05 10° 68° (ENE) 2,750 10.2 -19.8°
Enters shadow 04:40:12 - 82° (E) 3,215 10.4 -20.1°
Sets 04:41:59 0° 90° (E) 3,696 - -20.3°
